STARLINK-32362, 61845

Orbit data source: Space-Track

STARLINK-32362, 61845 is a payload satellite owned by SpaceX/Seattle (US) in LEO that was launched on Thu, 07 Nov 2024 UTC via an FALCON 9 launch vehicle from the Air Force Eastern Test Range (AFETR). Payload-class satellites include a variety of spacecraft equipped with specific instruments for various scientific and technological missions. These include communications satellites like Starlink; space stations such as the ISS; scientific satellites like the Hubble; Earth observation satellites from companies like Planet Labs, Umbra, and HawkEye 360; GPS; miniature CubeSats for education and research; and military/defense satellites.

Loading next visibility...
Identifier
61845, 2024-202A
Orbit
LEO
Country
Flag of USUS
Related business
Manufacturer
SpaceX/Seattle
Mission
Operational Commercial Communications
Bus & Motor
STARLINK V2M, Unknown motor
Mass
730 kg wet, ~700 kg dry
Launch date (UTC)
2024-11-07 (10 months ago)
Launch vehicle
FALCON 9
Launch site
Air Force Eastern Test Range (AFETR)
Object type
Payload
Rocket body
Debris
Shape & HBR
Box + 2 Pan, 14.5 m
Radar Cross Section
33.884 m², Large (>1 m²)

Expand to show TLE details & history
Last TLE update: 18 hours ago

TLE from 18 hours ago
0 STARLINK-32362
1 61845U 24202A   25259.01739476 -.00001605  00000-0 -48836-4 0  9991
2 61845  43.0034 133.2087 0001050 275.3820  84.6912 15.27565019 49337
Epoch: 2025-09-16T00:25Z
TLE epoch observation values (Epoch: 2025-09-16T00:25:02.907Z)
Latitude
-0°
Longitude
131.73285°
Altitude
482.803 km
Speed
7.626 km/s
True Right ascension
08h 52m 50s
True Declination
0° 00' 00"
Sunlit
Object was in daylight at epoch
Visualization orbit readout
Latitude
Unknown
Longitude
Unknown
Altitude
Unknown
Speed
Unknown
Apparent Right ascension
Unknown
Apparent Declination
Unknown
Sunlit
N/A
Visualization observer readout
Local Sidereal Time
10:44:42
Azimuth
Unknown
Elevation
Unknown
Doppler factor
Unknown
Orbital elements
Apogee altitude
485.759 km
Perigee altitude
484.318 km
Semi-major axis
6,863.176 km
Eccentricity
0.00011
Inclination
43.0034°
RAAN
133.2087°
Arg. of periapsis
275.382°
True anomaly
84.70318°
Mean anomaly
84.6912°
Eccentric anomaly
84.69719°
Mean motion
3.81729 °/min
Orbital period
94.31 mins
BSTAR
-0.000048836
Loading maneuver chart data...
Computing Atmospheric mass density...
Loading historical data...
Loading historical data...
Loading historical data...
Loading historical data...
Loading historical data...
Loading historical data...
Loading historical data...

Documentation

Showing up to 5 results
|